Weather in Pokrov

Russia / Yaroslavl Oblast     58°27′48″N   40°51′53″E
temp.,
°C
wind,
m/s
gust,
m/s
humid.,
%
clouds,
%
prec.,
mm/h
press.,
hPa
HPBL,
m
16 april, fri
fri1600:00+5ene51377100 0.0 1026628
03:00+3ene5137677 0.0 1027545
06:00+3ene5137196 0.0 1028522
09:00+5ene5116085 0.0 1028597
12:00+9ene584456 0.0 1028898
15:00+11ene573953 0.0 10281085
18:00+10ene494931 0.0 1028826
21:00+5ene311685 0.0 1029374
17 april, sat
sat1700:00+4ene412745 0.0 1030399
03:00+2ene311796 0.0 1031295
06:00+2ene411785 0.0 1031329
09:00+7e48535 0.0 1031604
12:00+11ene46403 0.0 10301101
15:00+12ene46390 0.0 10291310
18:00+10ene37505 0.0 1028577
21:00+5ne39702 0.0 1029195
18 april, sun
sun1800:00+4ne39790 0.0 1029181
03:00+3ene39855 0.0 1030203
06:00+3ene3108460 0.0 1030252
09:00+8ene476199 0.0 1029623
12:00+11ene5748100 0.0 10291420
15:00+11ene574899 0.0 10291773
18:00+9ene5866100 0.0 1029928
21:00+5ene51077100 0.0 1031723
19 april, mon
mon1900:00+4ene41076100 0.0 1031608
03:00+3ene4107799 0.0 1031452
06:00+1ene411720 0.0 1032421
09:00+5e58520 0.0 1033761
12:00+8e57390 0.0 10321424
15:00+10ese57355 0.0 10311657
18:00+8ese47445 0.0 10311378
21:00+4e411560 0.0 1032416
20 april, tue
tue2000:00+3e412600 0.0 1031435
03:00+1e411666 0.0 1031349
06:000e4136648 0.0 1030443
09:00+5ese51151100 0.0 1028896
12:00+9ese6104743 0.0 10261304
15:00+11ese61145100 0.0 10231560
18:00+9ese71449100 0.0 10211287
21:00+7ese71552100 0.0 10191078